| time (UTC) | temp C | wind direction | speed KPH | gust KPH | rain 1hr cm | rain 24hr cm | rain mn cm | humidity % | barometer mb |
| 20260503182829 | 20 | 163 | 0.0 | 4.8 | 0.00 | 0.00 | 0.00 | 49 | 1017.9 |
| 20260503182339 | 20 | 162 | 1.6 | 8.0 | 0.00 | 0.00 | 0.00 | 49 | 1017.9 |
| 20260503181848 | 20 | 129 | 3.2 | 8.0 | 0.00 | 0.00 | 0.00 | 48 | 1017.9 |
| 20260503181336 | 20 | 163 | 1.6 | 8.0 | 0.00 | 0.00 | 0.00 | 48 | 1017.8 |
| 20260503180846 | 21 | 153 | 3.2 | 9.7 | 0.00 | 0.00 | 0.00 | 47 | 1017.8 |
| 20260503180336 | 21 | 171 | 4.8 | 8.0 | 0.00 | 0.00 | 0.00 | 46 | 1017.8 |
| 20260503175846 | 21 | 173 | 3.2 | 8.0 | 0.00 | 0.00 | 0.00 | 45 | 1017.7 |
| 20260503175409 | 21 | 159 | 3.2 | 11.3 | 0.00 | 0.00 | 0.00 | 44 | 1017.7 |
| 20260503174839 | 21 | 155 | 3.2 | 11.3 | 0.00 | 0.00 | 0.00 | 43 | 1017.8 |
| 20260503174332 | 21 | 148 | 3.2 | 11.3 | 0.00 | 0.00 | 0.00 | 42 | 1017.8 |
| 20260503173841 | 21 | 167 | 3.2 | 11.3 | 0.00 | 0.00 | 0.00 | 42 | 1017.7 |
| 20260503173330 | 22 | 150 | 1.6 | 11.3 | 0.00 | 0.00 | 0.00 | 42 | 1017.7 |
| 20260503172840 | 22 | 133 | 3.2 | 11.3 | 0.00 | 0.00 | 0.00 | 41 | 1017.7 |
| 20260503172328 | 22 | 143 | 3.2 | 11.3 | 0.00 | 0.00 | 0.00 | 41 | 1017.8 |
| 20260503171838 | 22 | 153 | 4.8 | 11.3 | 0.00 | 0.00 | 0.00 | 40 | 1017.8 |
| 20260503171346 | 22 | 139 | 3.2 | 11.3 | 0.00 | 0.00 | 0.00 | 40 | 1017.8 |
| 20260503170838 | 22 | 131 | 3.2 | 11.3 | 0.00 | 0.00 | 0.00 | 40 | 1017.9 |
| 20260503170328 | 22 | 130 | 3.2 | 12.9 | 0.00 | 0.00 | 0.00 | 39 | 1017.9 |
| 20260503150907 | 24 | 94 | 8.0 | 14.5 | 0.00 | 0.00 | 0.00 | 35 | 1018.2 |
| 20260503150354 | 24 | 124 | 4.8 | 14.5 | 0.00 | 0.00 | 0.00 | 36 | 1018.3 |
| 20260503131344 | 23 | 53 | 6.4 | 16.1 | 0.00 | 0.00 | 0.00 | 57 | 1019.1 |
| 20260503130835 | 23 | 26 | 6.4 | 16.1 | 0.00 | 0.00 | 0.00 | 57 | 1019.3 |
| 20260503130344 | 23 | 36 | 9.7 | 19.3 | 0.00 | 0.00 | 0.00 | 57 | 1019.2 |
| 20260503110328 | 21 | 49 | 11.3 | 17.7 | 0.00 | 0.00 | 0.00 | 52 | 1020.1 |
| 20260503090342 | 22 | 342 | 4.8 | 14.5 | 0.00 | 0.00 | 0.00 | 49 | 1021.1 |
| 20260503081334 | 21 | 360 | 3.2 | 8.0 | 0.00 | 0.00 | 0.00 | 52 | 1021.2 |
| 20260503080905 | 21 | 9 | 3.2 | 8.0 | 0.00 | 0.00 | 0.00 | 53 | 1021.3 |
| 20260503080355 | 21 | 355 | 3.2 | 6.4 | 0.00 | 0.00 | 0.00 | 51 | 1021.3 |
| 20260503072830 | 19 | 199 | 3.2 | 6.4 | 0.00 | 0.00 | 0.00 | 50 | 1021.3 |
| 20260503072341 | 19 | 180 | 1.6 | 6.4 | 0.00 | 0.00 | 0.00 | 50 | 1021.3 |
| 20260503071830 | 18 | 216 | 1.6 | 6.4 | 0.00 | 0.00 | 0.00 | 50 | 1021.4 |
| 20260503071339 | 18 | 215 | 3.2 | 9.7 | 0.00 | 0.00 | 0.00 | 51 | 1021.4 |
| 20260503070835 | 18 | 215 | 4.8 | 9.7 | 0.00 | 0.00 | 0.00 | 51 | 1021.4 |
| 20260503070344 | 18 | 207 | 1.6 | 8.0 | 0.00 | 0.00 | 0.00 | 53 | 1021.5 |
| 20260503060334 | 15 | 209 | 3.2 | 6.4 | 0.00 | 0.00 | 0.00 | 63 | 1021.2 |
| 20260503054827 | 13 | 190 | 3.2 | 4.8 | 0.00 | 0.00 | 0.00 | 67 | 1021.2 |
| 20260503054357 | 13 | 195 | 3.2 | 4.8 | 0.00 | 0.00 | 0.00 | 68 | 1021.1 |
| 20260503053829 | 12 | 200 | 3.2 | 4.8 | 0.00 | 0.00 | 0.00 | 68 | 1021.2 |
| 20260503053337 | 12 | 201 | 3.2 | 4.8 | 0.00 | 0.00 | 0.00 | 68 | 1021.2 |
| 20260503052826 | 12 | 202 | 3.2 | 6.4 | 0.00 | 0.00 | 0.00 | 69 | 1021.2 |
| 20260503052356 | 11 | 193 | 3.2 | 6.4 | 0.00 | 0.00 | 0.00 | 69 | 1021.1 |
| 20260503051844 | 11 | 188 | 3.2 | 6.4 | 0.00 | 0.00 | 0.00 | 69 | 1021.1 |
| 20260503051336 | 11 | 187 | 3.2 | 6.4 | 0.00 | 0.00 | 0.00 | 70 | 1021.0 |
| 20260503050847 | 11 | 184 | 3.2 | 6.4 | 0.00 | 0.00 | 0.00 | 70 | 1021.1 |
| 20260503050335 | 11 | 194 | 3.2 | 6.4 | 0.00 | 0.00 | 0.00 | 70 | 1021.0 |
| 20260503045827 | 11 | 184 | 3.2 | 6.4 | 0.00 | 0.00 | 0.00 | 71 | 1021.1 |
| 20260503045336 | 11 | 184 | 3.2 | 6.4 | 0.00 | 0.00 | 0.00 | 71 | 1021.1 |
| 20260503044830 | 11 | 190 | 3.2 | 6.4 | 0.00 | 0.00 | 0.00 | 71 | 1021.1 |
| 20260503044341 | 10 | 194 | 3.2 | 6.4 | 0.00 | 0.00 | 0.00 | 71 | 1021.1 |
| 20260503043832 | 10 | 178 | 3.2 | 6.4 | 0.00 | 0.00 | 0.00 | 71 | 1021.0 |
| 20260503043402 | 10 | 198 | 3.2 | 6.4 | 0.00 | 0.00 | 0.00 | 72 | 1021.0 |
| 20260503042833 | 10 | 193 | 4.8 | 6.4 | 0.00 | 0.00 | 0.00 | 73 | 1021.0 |
| 20260503042341 | 10 | 183 | 3.2 | 6.4 | 0.00 | 0.00 | 0.00 | 73 | 1021.0 |
| 20260503041831 | 10 | 188 | 3.2 | 6.4 | 0.00 | 0.00 | 0.00 | 73 | 1021.0 |
| 20260503041342 | 10 | 194 | 3.2 | 6.4 | 0.00 | 0.00 | 0.00 | 73 | 1021.0 |
| 20260503040830 | 10 | 194 | 3.2 | 6.4 | 0.00 | 0.00 | 0.00 | 74 | 1020.9 |
| 20260503040342 | 10 | 174 | 4.8 | 8.0 | 0.00 | 0.00 | 0.00 | 74 | 1020.9 |
| 20260503035837 | 10 | 164 | 3.2 | 6.4 | 0.00 | 0.00 | 0.00 | 74 | 1021.0 |
| 20260503035328 | 10 | 201 | 3.2 | 6.4 | 0.00 | 0.00 | 0.00 | 74 | 1021.0 |
| 20260503034859 | 10 | 175 | 4.8 | 6.4 | 0.00 | 0.00 | 0.00 | 74 | 1020.9 |
| 20260503034329 | 10 | 184 | 3.2 | 6.4 | 0.00 | 0.00 | 0.00 | 74 | 1020.9 |
| 20260503033839 | 10 | 152 | 3.2 | 8.0 | 0.00 | 0.00 | 0.00 | 74 | 1020.9 |
| 20260503033331 | 10 | 152 | 4.8 | 8.0 | 0.00 | 0.00 | 0.00 | 74 | 1020.9 |
| 20260503032840 | 10 | 156 | 4.8 | 6.4 | 0.00 | 0.00 | 0.00 | 75 | 1020.9 |
| 20260503032332 | 10 | 177 | 3.2 | 8.0 | 0.00 | 0.00 | 0.00 | 75 | 1021.0 |
| 20260503031843 | 10 | 171 | 3.2 | 6.4 | 0.00 | 0.00 | 0.00 | 75 | 1021.0 |
| 20260503031338 | 10 | 174 | 3.2 | 4.8 | 0.00 | 0.00 | 0.00 | 75 | 1021.1 |
| 20260503030828 | 10 | 176 | 3.2 | 6.4 | 0.00 | 0.00 | 0.00 | 75 | 1021.0 |
| 20260503030339 | 10 | 184 | 3.2 | 6.4 | 0.00 | 0.00 | 0.00 | 75 | 1021.0 |
| 20260503025909 | 10 | 188 | 3.2 | 6.4 | 0.00 | 0.00 | 0.00 | 75 | 1021.1 |
| 20260503025337 | 10 | 196 | 3.2 | 4.8 | 0.00 | 0.00 | 0.00 | 75 | 1021.1 |
| 20260503024905 | 10 | 188 | 3.2 | 8.0 | 0.00 | 0.00 | 0.00 | 75 | 1021.1 |
| 20260503024335 | 10 | 178 | 3.2 | 8.0 | 0.00 | 0.00 | 0.00 | 75 | 1021.1 |
| 20260503023904 | 10 | 189 | 3.2 | 6.4 | 0.00 | 0.00 | 0.00 | 75 | 1021.2 |
| 20260503023332 | 10 | 182 | 4.8 | 8.0 | 0.00 | 0.00 | 0.00 | 75 | 1021.1 |
| 20260503022843 | 10 | 175 | 3.2 | 8.0 | 0.00 | 0.00 | 0.00 | 75 | 1021.1 |
| 20260503022334 | 10 | 175 | 3.2 | 6.4 | 0.00 | 0.00 | 0.00 | 75 | 1021.1 |
| 20260503021828 | 10 | 165 | 3.2 | 6.4 | 0.00 | 0.00 | 0.00 | 75 | 1021.1 |
| 20260503021339 | 10 | 187 | 3.2 | 4.8 | 0.00 | 0.00 | 0.00 | 75 | 1021.2 |
| 20260503020828 | 10 | 189 | 3.2 | 4.8 | 0.00 | 0.00 | 0.00 | 75 | 1021.3 |
| 20260503020340 | 10 | 191 | 3.2 | 4.8 | 0.00 | 0.00 | 0.00 | 75 | 1021.3 |
| 20260503015849 | 10 | 175 | 3.2 | 6.4 | 0.00 | 0.00 | 0.00 | 74 | 1021.4 |
| 20260503015339 | 10 | 166 | 3.2 | 6.4 | 0.00 | 0.00 | 0.00 | 74 | 1021.4 |
| 20260503014829 | 10 | 182 | 3.2 | 6.4 | 0.00 | 0.00 | 0.00 | 74 | 1021.4 |
| 20260503014340 | 10 | 190 | 3.2 | 6.4 | 0.00 | 0.00 | 0.00 | 74 | 1021.4 |
| 20260503013830 | 10 | 207 | 3.2 | 6.4 | 0.00 | 0.00 | 0.00 | 74 | 1021.4 |
| 20260503013345 | 10 | 183 | 3.2 | 6.4 | 0.00 | 0.00 | 0.00 | 74 | 1021.3 |
| 20260503012835 | 10 | 186 | 3.2 | 6.4 | 0.00 | 0.00 | 0.00 | 74 | 1021.4 |
| 20260503012346 | 10 | 176 | 3.2 | 6.4 | 0.00 | 0.00 | 0.00 | 74 | 1021.4 |
| 20260503011837 | 10 | 186 | 3.2 | 6.4 | 0.00 | 0.00 | 0.00 | 73 | 1021.5 |
| 20260503011347 | 10 | 190 | 3.2 | 6.4 | 0.00 | 0.00 | 0.00 | 73 | 1021.6 |
| 20260503010838 | 10 | 192 | 3.2 | 4.8 | 0.00 | 0.00 | 0.00 | 74 | 1021.6 |
| 20260503010328 | 10 | 198 | 3.2 | 4.8 | 0.00 | 0.00 | 0.00 | 74 | 1021.6 |
| 20260503005839 | 10 | 198 | 3.2 | 4.8 | 0.00 | 0.00 | 0.00 | 73 | 1021.6 |
| 20260503005329 | 10 | 182 | 1.6 | 6.4 | 0.00 | 0.00 | 0.00 | 73 | 1021.6 |
| 20260503004838 | 11 | 184 | 3.2 | 6.4 | 0.00 | 0.00 | 0.00 | 73 | 1021.7 |
| 20260503004332 | 11 | 190 | 3.2 | 4.8 | 0.00 | 0.00 | 0.00 | 72 | 1021.7 |
| 20260503003902 | 11 | 186 | 3.2 | 6.4 | 0.00 | 0.00 | 0.00 | 72 | 1021.7 |
| 20260503003332 | 11 | 182 | 3.2 | 6.4 | 0.00 | 0.00 | 0.00 | 72 | 1021.8 |
| 20260503002842 | 11 | 193 | 4.8 | 6.4 | 0.00 | 0.00 | 0.00 | 72 | 1021.8 |
| 20260503002331 | 11 | 192 | 3.2 | 6.4 | 0.00 | 0.00 | 0.00 | 71 | 1021.8 |
| 20260503001842 | 11 | 200 | 3.2 | 6.4 | 0.00 | 0.00 | 0.00 | 72 | 1021.9 |
| 20260503001332 | 11 | 174 | 3.2 | 4.8 | 0.00 | 0.00 | 0.00 | 72 | 1021.9 |
| 20260503000843 | 11 | 170 | 1.6 | 4.8 | 0.00 | 0.00 | 0.00 | 71 | 1022.0 |
| 20260503000334 | 11 | 164 | 3.2 | 8.0 | 0.00 | 0.00 | 0.00 | 71 | 1022.0 |
| 20260502235829 | 11 | 171 | 4.8 | 8.0 | 0.00 | 0.00 | 0.00 | 71 | 1022.0 |
| 20260502235338 | 11 | 173 | 3.2 | 4.8 | 0.00 | 0.00 | 0.00 | 71 | 1022.2 |
| 20260502234827 | 11 | 185 | 526.3 | 4.8 | 0.00 | 0.00 | 0.00 | 71 | 1022.2 |
| 20260502234359 | -17 | 0.0 | 0.0 | 0.00 | 0.00 | 0.00 | 1022.2 | ||
| 20260502233830 | -17 | 0.0 | 0.0 | 0.00 | 0.00 | 0.00 | 1022.2 | ||
| 20260502233342 | -17 | 0.0 | 0.0 | 0.00 | 0.00 | 0.00 | 1022.3 | ||
| 20260502232836 | -17 | 0.0 | 0.0 | 0.00 | 0.00 | 0.00 | 1022.3 | ||
| 20260502232329 | -17 | 0.0 | 0.0 | 0.00 | 0.00 | 0.00 | 1022.4 | ||
| 20260502231825 | -17 | 0.0 | 0.0 | 0.00 | 0.00 | 0.00 | 1022.4 | ||
| 20260502231340 | -17 | 0.0 | 0.0 | 0.00 | 0.00 | 0.00 | 1022.4 | ||
| 20260502230833 | -17 | 0.0 | 0.0 | 0.00 | 0.00 | 0.00 | 1022.5 | ||
| 20260502230326 | -17 | 0.0 | 0.0 | 0.00 | 0.00 | 0.00 | 1022.6 | ||
| 20260502225839 | -17 | 0.0 | 0.0 | 0.00 | 0.00 | 0.00 | 1022.7 | ||
| 20260502225332 | -17 | 0.0 | 0.0 | 0.00 | 0.00 | 0.00 | 1022.7 | ||
| 20260502224825 | -17 | 0.0 | 0.0 | 0.00 | 0.00 | 0.00 | 1022.8 | ||
| 20260502224339 | -17 | 0.0 | 0.0 | 0.00 | 0.00 | 0.00 | 1022.7 | ||
| 20260502223834 | -17 | 0.0 | 0.0 | 0.00 | 0.00 | 0.00 | 1022.7 | ||
| 20260502223328 | -17 | 0.0 | 0.0 | 0.00 | 0.00 | 0.00 | 1022.7 | ||
| 20260502222901 | -17 | 0.0 | 0.0 | 0.00 | 0.00 | 0.00 | 1022.7 | ||
| 20260502222333 | -17 | 0.0 | 0.0 | 0.00 | 0.00 | 0.00 | 1022.8 | ||
| 20260502221327 | 12 | 194 | 3.2 | 4.8 | 0.00 | 0.00 | 0.00 | 66 | 1022.8 |
| 20260502220836 | 12 | 188 | 3.2 | 4.8 | 0.00 | 0.00 | 0.00 | 65 | 1022.8 |
| 20260502215856 | 12 | 180 | 1.6 | 3.2 | 0.00 | 0.00 | 0.00 | 65 | 1022.7 |
| 20260502215407 | 12 | 181 | 0.0 | 0.0 | 0.00 | 0.00 | 0.00 | 64 | 1022.8 |
| 20260502214834 | 12 | 180 | 0.0 | 0.0 | 0.00 | 0.00 | 0.00 | 64 | 1022.8 |
| 20260502214344 | 12 | 172 | 0.0 | 0.0 | 0.00 | 0.00 | 0.00 | 64 | 1022.9 |
| 20260502213853 | 12 | 170 | 0.0 | 0.0 | 0.00 | 0.00 | 0.00 | 64 | 1022.9 |
| 20260502213346 | 12 | 168 | 0.0 | 0.0 | 0.00 | 0.00 | 0.00 | 64 | 1022.9 |
| 20260502212855 | 12 | 165 | 0.0 | 0.0 | 0.00 | 0.00 | 0.00 | 64 | 1023.0 |
| 20260502212343 | 12 | 162 | 0.0 | 0.0 | 0.00 | 0.00 | 0.00 | 63 | 1023.1 |
| 20260502211833 | 12 | 144 | 0.0 | 0.0 | 0.00 | 0.00 | 0.00 | 62 | 1023.0 |
| 20260502211342 | 12 | 143 | 0.0 | 0.0 | 0.00 | 0.00 | 0.00 | 62 | 1023.1 |
| 20260502210831 | 12 | 143 | 0.0 | 0.0 | 0.00 | 0.00 | 0.00 | 61 | 1023.0 |
| 20260502210340 | 12 | 143 | 0.0 | 0.0 | 0.00 | 0.00 | 0.00 | 61 | 1023.0 |
| 20260502205830 | 13 | 143 | 0.0 | 0.0 | 0.00 | 0.00 | 0.00 | 63 | 1023.1 |
| 20260502205339 | 13 | 143 | 0.0 | 0.0 | 0.00 | 0.00 | 0.00 | 63 | 1023.1 |
| 20260502204833 | 13 | 143 | 0.0 | 0.0 | 0.00 | 0.00 | 0.00 | 63 | 1023.1 |
| 20260502204342 | 13 | 142 | 0.0 | 0.0 | 0.00 | 0.00 | 0.00 | 62 | 1023.1 |
| 20260502203830 | 13 | 142 | 0.0 | 0.0 | 0.00 | 0.00 | 0.00 | 61 | 1023.1 |
| 20260502203341 | 13 | 142 | 0.0 | 0.0 | 0.00 | 0.00 | 0.00 | 60 | 1023.1 |
| 20260502202850 | 13 | 142 | 0.0 | 0.0 | 0.00 | 0.00 | 0.00 | 58 | 1023.1 |
| 20260502202340 | 13 | 136 | 0.0 | 0.0 | 0.00 | 0.00 | 0.00 | 58 | 1023.0 |
| 20260502201830 | 13 | 136 | 0.0 | 0.0 | 0.00 | 0.00 | 0.00 | 57 | 1023.1 |
| 20260502201340 | 14 | 136 | 0.0 | 0.0 | 0.00 | 0.00 | 0.00 | 56 | 1023.1 |
| 20260502200830 | 14 | 94 | 0.0 | 0.0 | 0.00 | 0.00 | 0.00 | 55 | 1023.0 |
| 20260502200337 | 14 | 90 | 0.0 | 0.0 | 0.00 | 0.00 | 0.00 | 55 | 1023.0 |
| 20260502195831 | 15 | 90 | 0.0 | 0.0 | 0.00 | 0.00 | 0.00 | 54 | 1023.0 |
| 20260502195340 | 15 | 88 | 0.0 | 0.0 | 0.00 | 0.00 | 0.00 | 53 | 1023.1 |
| 20260502194830 | 15 | 86 | 0.0 | 0.0 | 0.00 | 0.00 | 0.00 | 53 | 1023.1 |
| 20260502194339 | 15 | 86 | 0.0 | 0.0 | 0.00 | 0.00 | 0.00 | 52 | 1023.1 |
| 20260502193830 | 15 | 86 | 0.0 | 0.0 | 0.00 | 0.00 | 0.00 | 51 | 1023.0 |
| 20260502193338 | 15 | 86 | 0.0 | 0.0 | 0.00 | 0.00 | 0.00 | 51 | 1023.0 |
| 20260502192828 | 16 | 86 | 0.0 | 0.0 | 0.00 | 0.00 | 0.00 | 50 | 1023.0 |
| 20260502192338 | 16 | 86 | 0.0 | 0.0 | 0.00 | 0.00 | 0.00 | 49 | 1023.0 |
| 20260502191830 | 16 | 86 | 0.0 | 0.0 | 0.00 | 0.00 | 0.00 | 48 | 1022.9 |
| 20260502191340 | 16 | 86 | 0.0 | 0.0 | 0.00 | 0.00 | 0.00 | 47 | 1022.9 |
| 20260502190830 | 17 | 86 | 0.0 | 0.0 | 0.00 | 0.00 | 0.00 | 46 | 1022.9 |
| 20260502190341 | 17 | 86 | 0.0 | 0.0 | 0.00 | 0.00 | 0.00 | 45 | 1022.9 |
| 20260502185831 | 17 | 71 | 0.0 | 0.0 | 0.00 | 0.00 | 0.00 | 44 | 1022.8 |
| 20260502185341 | 17 | 57 | 0.0 | 0.0 | 0.00 | 0.00 | 0.00 | 43 | 1022.7 |
| 20260502184831 | 18 | 55 | 0.0 | 0.0 | 0.00 | 0.00 | 0.00 | 42 | 1022.7 |
| 20260502184340 | 18 | 55 | 0.0 | 0.0 | 0.00 | 0.00 | 0.00 | 41 | 1022.7 |
| 20260502183829 | 18 | 55 | 0.0 | 0.0 | 0.00 | 0.00 | 0.00 | 39 | 1022.7 |
| 20260502183344 | 19 | 55 | 0.0 | 0.0 | 0.00 | 0.00 | 0.00 | 38 | 1022.6 |